DELTA 1 DEB, 42636

Orbit data source: Space-Track

DELTA 1 DEB, 42636 is space debris in SSO originally from a launch on Thu, 12 Jun 1975 UTC launched from the Air Force Western Test Range (AFWTR). Debris objects in space refer to the collection of defunct objects orbiting the Earth. Examples of debris include non-operational satellites, rocket bodies, and fragments generated from explosions, collisions, or faulty payload assembly.

Loading next visibility...
Identifier
42636, 1975-052LV
Orbit
SSO
Country
Flag of USUS
Related business
Manufacturer
Unknown
Mission
Spacecraft
Bus & Motor
Unknown
Mass
Unknown
Launch date (UTC)
1975-06-12 (50 years ago)
Launch vehicle
Unknown
Launch site
Air Force Western Test Range (AFWTR)
Object type
Payload
Rocket body
Debris
Shape & HBR
Unknown shape, 0.1 m
Radar Cross Section
Small (<0.1 m²)

Expand to show TLE details & history
Last TLE update: 21 hours ago

TLE from 21 hours ago
0 DELTA 1 DEB
1 42636U 75052LV  25294.05933632  .00000359  00000-0  91818-3 0  9990
2 42636  99.6837 134.6301 0131716  11.3544 139.7629 13.22102859574365
Epoch: 2025-10-21T01:25Z
TLE epoch observation values (Epoch: 2025-10-21T01:25:26.658Z)
Latitude
27.52701°
Longitude
-91.4072°
Altitude
1,256.446 km
Speed
7.193 km/s
True Right ascension
21h 18m 49s
True Declination
27° 23' 44"
Sunlit
Object was in daylight at epoch
Visualization orbit readout
Latitude
Unknown
Longitude
Unknown
Altitude
Unknown
Speed
Unknown
Apparent Right ascension
Unknown
Apparent Declination
Unknown
Sunlit
N/A
Visualization observer readout
Local Sidereal Time
17:18:16
Azimuth
Unknown
Elevation
Unknown
Doppler factor
Unknown
Orbital elements
Apogee altitude
1,273.51 km
Perigee altitude
1,074.562 km
Semi-major axis
7,552.173 km
Eccentricity
0.01317
Inclination
99.6837°
RAAN
134.6301°
Arg. of periapsis
11.3544°
True anomaly
140.72572°
Mean anomaly
139.7629°
Eccentric anomaly
140.24552°
Mean motion
3.30701 °/min
Orbital period
108.86 mins
BSTAR
0.00091818
Loading maneuver chart data...
Computing Atmospheric mass density...

Documentation

Showing up to 5 results
|